This demonstration page uses our WeatherBlox Daily Observations layout. Learn more.

39.92423, -83.80882

Hourly Observations for August 2, 2018

Temp ( °F °C ) Dew Point ( °F °C ) Humidity (%) Winds ( mph kmh ) Pressure ( in mb ) Visibility ( mi km ) Precip ( " mm )
12:56 am 00:56 Clear with Mist and Fog 65 18.3 65 18.3 100 100 Calm 30.05 1018 5 8.0467 0 0
1:16 am 01:16 Mostly Clear with Mist and Fog 64 18 64 18 100 100 S 3 6 30.03 1017 1.5 2.41401 0 0
1:24 am 01:24 Mostly Cloudy with Mist and Fog 64 18 64 18 100 100 SSE 5 7 30.03 1017 1 1.60934 0 0
1:27 am 01:27 Clear with Mist and Fog 64 18 64 18 100 100 SSE 6 9 30.03 1017 2 3.21868 0 0
1:56 am 01:56 Clear with Mist and Fog 66 18.9 66 18.9 100 100 SSE 7 11 30.04 1017 5 8.0467 0 0
2:56 am 02:56 Clear with Mist and Fog 65 18.3 65 18.3 100 100 Calm 30.04 1017 3 4.82802 0 0
3:40 am 03:40 Clear with Mist and Fog 64 18 64 18 100 100 Calm 30.03 1017 2 3.21868 0 0
3:56 am 03:56 Mostly Clear with Mist and Fog 64 17.8 64 17.8 100 100 Calm 30.04 1017 3 4.82802 0 0
4:04 am 04:04 Mostly Cloudy with Mist and Fog 63 17 63 17 100 100 Calm 30.06 1018 0.75 1.207005 0 0
4:12 am 04:12 Mostly Cloudy with Fog 63 17 63 17 100 100 Calm 30.06 1018 0.5 0.80467 0 0
4:15 am 04:15 Clear with Mist and Fog 63 17 63 17 100 100 Calm 30.06 1018 0.75 1.207005 0 0
4:19 am 04:19 Clear with Mist and Fog 63 17 63 17 100 100 Calm 30.06 1018 1.25 2.011675 0 0
4:22 am 04:22 Clear with Mist and Fog 63 17 63 17 100 100 Calm 30.06 1018 3 4.82802 0 0
4:29 am 04:29 Partly Cloudy with Mist and Fog 63 17 63 17 100 100 SE 3 6 30.06 1018 3 4.82802 0 0
4:37 am 04:37 Mostly Cloudy with Mist and Fog 63 17 63 17 100 100 SSE 3 6 30.06 1018 3 4.82802 0 0
4:42 am 04:42 Mostly Cloudy with Mist and Fog 63 17 63 17 100 100 SSE 3 6 30.06 1018 1 1.60934 0 0
4:44 am 04:44 Mostly Cloudy with Fog 63 17 63 17 100 100 S 3 6 30.06 1018 0.5 0.80467 0 0
4:54 am 04:54 Mostly Cloudy with Mist and Fog 64 18 64 18 100 100 Calm 30.03 1017 1 1.60934 0 0
4:56 am 04:56 Mostly Cloudy with Mist and Fog 64 17.8 64 17.8 100 100 Calm 30.05 1018 1.25 2.011675 0 0
5:00 am 05:00 Mostly Cloudy with Mist and Fog 63 17 63 17 100 100 Calm 30.06 1018 0.75 1.207005 0 0
5:07 am 05:07 Mostly Cloudy with Mist and Fog 63 17 63 17 100 100 Calm 30.06 1018 1 1.60934 0 0
5:15 am 05:15 Mostly Cloudy with Fog 63 17 63 17 100 100 Calm 30.06 1018 0.5 0.80467 0 0
5:53 am 05:53 Cloudy with Fog 64 18 64 18 100 100 SSE 5 7 30.03 1017 0.25 0.402335 0 0
5:56 am 05:56 Cloudy with Fog 65 18.3 65 18.3 100 100 S 5 7 30.05 1018 0.25 0.402335 0 0
7:56 am 07:56 Cloudy with Fog 66 18.9 66 18.9 100 100 Calm 30.07 1018 5 8.0467 0 0
8:32 am 08:32 Cloudy with Mist and Fog 66 19 66 19 100 100 Calm 30.06 1018 0.75 1.207005 0 0
8:34 am 08:34 Cloudy with Mist and Fog 66 19 66 19 100 100 Calm 30.06 1018 1.25 2.011675 0 0
8:36 am 08:36 Cloudy with Mist and Fog 66 19 66 19 100 100 Calm 30.06 1018 3 4.82802 0 0
8:39 am 08:39 Cloudy with Mist and Fog 66 19 66 19 100 100 Calm 30.06 1018 1.75 2.816345 0 0
8:52 am 08:52 Cloudy with Mist and Fog 66 19 66 19 100 100 Calm 30.06 1018 3 4.82802 0 0
8:56 am 08:56 Cloudy with Mist and Fog 67 19.4 67 19.4 100 100 Calm 30.09 1019 4 6.43736 0 0
9:43 am 09:43 Partly Cloudy 70 21 68 20 94 94 Calm 30.06 1018 10 16.0934 0 0
9:54 am 09:54 Mostly Cloudy 70 21 68 20 94 94 Calm 30.09 1019 10 16.0934 0 0
9:56 am 09:56 Mostly Cloudy 70 21.1 68 20 93 93 Calm 30.1 1019 10 16.0934 0 0
10:36 am 10:36 Mostly Cloudy 72 22 70 21 94 94 WNW 3 6 30.09 1019 10 16.0934 0 0
10:56 am 10:56 Mostly Cloudy 71 21.7 68 20 90 90 VRB 5 7 30.09 1019 10 16.0934 0 0
11:04 am 11:04 Mostly Sunny 72 22 68 20 88 88 Calm 30.06 1018 10 16.0934 0 0
11:56 am 11:56 Sunny 74 23.3 67 19.4 79 79 Calm 30.1 1019 10 16.0934 0 0
12:56 pm 12:56 Sunny 75 23.9 66 18.9 74 74 S 5 7 30.09 1019 10 16.0934 0 0
1:56 pm 13:56 Sunny 77 25 67 19.4 71 71 VRB 6 9 30.08 1019 10 16.0934 0 0
2:56 pm 14:56 Sunny 77 25 65 18.3 66 66 SW 6 9 30.07 1018 10 16.0934 0 0
3:56 pm 15:56 Mostly Sunny 77 25 68 20 74 74 SSE 7 11 30.06 1018 10 16.0934 0 0
4:56 pm 16:56 Sunny 76 24.4 67 19.4 74 74 SSW 5 7 30.06 1018 10 16.0934 0 0
5:56 pm 17:56 Sunny 76 24.4 68 20 77 77 Calm 30.05 1018 10 16.0934 0 0
6:56 pm 18:56 Sunny 76 24.4 67 19.4 74 74 S 6 9 30.04 1017 10 16.0934 0 0
7:56 pm 19:56 Sunny 75 23.9 68 20 79 79 S 3 6 30.04 1017 10 16.0934 0 0
8:56 pm 20:56 Clear 72 22.2 68 20 87 87 SSE 3 6 30.05 1018 10 16.0934 0 0
9:56 pm 21:56 Clear 70 21.1 67 19.4 90 90 S 3 6 30.08 1019 10 16.0934 0 0
10:56 pm 22:56 Clear 69 20.6 67 19.4 93 93 SSE 6 9 30.09 1019 10 16.0934 0 0
11:56 pm 23:56 Clear 69 20.6 67 19.4 93 93 S 8 13 30.07 1018 10 16.0934 0 0

Powered by AerisWeather